Regional Weather Roundup
Issued by NWS

Home | Current Version | Previous Version | Graphics & Text | Print | Product List | Glossary On
Versions: 1 2 3 4 5 6 7 8 9 10 11 12 13 14 15 16 17 18 19 20 21 22 23 24 25 26 27 28 29 30 31 32 33 34 35 36 37 38 39 40 41 42 43 44 45 46 47 48 49 50
000
ASUS45 KCYS 261710
RWRWY

WYOMING REGIONAL WEATHER ROUNDUP
NATIONAL WEATHER SERVICE CHEYENNE WY
1000 AM MST WED NOV 26 2014

NOTE:  "FAIR" INDICATES FEW OR NO CLOUDS BELOW 12,000 FEET
WITH NO SIGNIFICANT WEATHER AND/OR OBSTRUCTIONS TO VISIBILITY.

WYZ001-261800-
YELLOWSTONE NATIONAL PARK

CITY           SKY/WX    TMP DP  RH WIND       PRES   REMARKS
LK YELLOWSTONE   N/A     33  28  81 W9G20     30.19R WCI  25
W YELLOWSTONE  NOT AVBL

$$
WYZ002>013-054>058-071-098>099-261800-
NORTHERN WYOMING

CITY           SKY/WX    TMP DP  RH WIND       PRES   REMARKS
JACKSON        CLOUDY    39  32  75 SW7       30.23R WCI  34
CODY           CLOUDY    25  25 100 CALM      30.14S
GREYBULL       LGT SNOW  28  27  96 CALM      30.19R FOG
WORLAND        FOG       23  23 100 SW3       30.17S VSB 1/4
SHERIDAN       LGT SNOW  28  25  88 CALM      30.20R FOG
BUFFALO        LGT SNOW  25  22  88 SE7       30.18S FOG     WCI  17
GILLETTE       LGT SNOW  28  24  85 CALM      30.18F FOG
HULETT           N/A    N/A N/A N/A MISG        N/A
NEWCASTLE      FAIR      28  23  80 W5        30.20F WCI  23

$$
WYZ014>020-022>026-101>103-261800-
CENTRAL WYOMING

CITY           SKY/WX    TMP DP  RH WIND       PRES   REMARKS
BIG PINEY      MOSUNNY  N/A N/A N/A NW14      30.24R
PINEDALE       MOSUNNY   36  32  87 NW18      30.24R WCI  25
DUBOIS         CLOUDY    36  30  80 W35G43    30.10S WCI  22
LANDER         CLOUDY    27  25  92 S6        30.11S WCI  20
RIVERTON       CLOUDY    26  22  84 CALM      30.13S
CASPER         MOSUNNY   27  20  75 E5        30.15S WCI  22
DOUGLAS        CLOUDY   N/A N/A N/A S5        30.20R

$$
WYZ021-027>030-104>119-261800-
SOUTHERN WYOMING

CITY           SKY/WX    TMP DP  RH WIND       PRES   REMARKS
EVANSTON       MOSUNNY   41  29  62 SW16      30.37R
FORT BRIDGER   CLOUDY    40  32  71 SW20G29   30.38R WCI  31
ROCK SPRINGS   MOSUNNY   39  30  70 W31G43    30.26R WCI  27
DIXON          CLOUDY    41  30  64 S14G20    30.32S
RAWLINS        PTSUNNY   41  31  67 W29G40    30.17R
SARATOGA       FAIR      41  30  65 W36G49    30.18R
LARAMIE        CLOUDY    39  27  62 W22G38    30.11R WCI  29
CHEYENNE       MIX PCPN  24  20  84 VRB3      30.17R
TORRINGTON     CLOUDY    28  26  92 W5        30.24R WCI  23
PINE BLUFFS    FLURRIES  27  23  86 NW5       30.22S WCI  21

$$


USA.gov is the U.S. government's official web portal to all federal, state and local government web resources and services.